Time,TemperatureF,DewpointF,PressureIn,WindDirection,WindDirectionDegrees,WindSpeedMPH,WindSpeedGustMPH,Humidity,HourlyPrecipIn,Conditions,Clouds,dailyrainin,SolarRadiationWatts/m^2,SoftwareType,DateUTC
2013-01-13 00:02:00,71.7,66.6,30.14,SE,127,3.0,5.0,84,0.00,,,0.01,0,Wunderground v.1.15,2013-01-13 05:02:00,
2013-01-13 00:04:00,71.8,66.7,30.14,SE,129,3.0,5.0,84,0.00,,,0.01,0,Wunderground v.1.15,2013-01-13 05:04:00,
2013-01-13 00:10:00,71.7,66.6,30.14,SE,126,3.0,3.0,84,0.00,,,0.00,0,Wunderground v.1.15,2013-01-13 05:10:00,
2013-01-13 00:12:00,71.7,66.6,30.14,SE,126,2.0,3.0,84,0.00,,,0.00,0,Wunderground v.1.15,2013-01-13 05:12:00,
2013-01-13 00:18:00,71.7,66.6,30.14,SE,126,2.0,3.0,84,0.00,,,0.00,0,Wunderground v.1.15,2013-01-13 05:18:00,
2013-01-13 00:24:00,71.7,66.6,30.14,SE,128,2.0,3.0,84,0.00,,,0.00,0,Wunderground v.1.15,2013-01-13 05:24:00,
2013-01-13 00:26:00,71.6,66.5,30.14,SE,128,2.0,3.0,84,0.00,,,0.00,0,Wunderground v.1.15,2013-01-13 05:26:00,
2013-01-13 00:32:00,71.6,66.5,30.14,SE,128,3.0,5.0,84,0.00,,,0.00,0,Wunderground v.1.15,2013-01-13 05:32:00,
2013-01-13 00:38:00,71.6,66.8,30.14,ESE,119,3.0,5.0,85,0.00,,,0.00,0,Wunderground v.1.15,2013-01-13 05:38:00,
2013-01-13 00:44:00,71.6,66.5,30.14,ESE,120,3.0,3.0,84,0.00,,,0.00,0,Wunderground v.1.15,2013-01-13 05:44:00,
2013-01-13 00:50:00,71.6,66.5,30.14,SE,125,3.0,3.0,84,0.00,,,0.00,0,Wunderground v.1.15,2013-01-13 05:50:00,
2013-01-13 00:56:00,71.5,66.8,30.13,SE,126,2.0,3.0,85,0.00,,,0.00,0,Wunderground v.1.15,2013-01-13 05:56:00,
2013-01-13 01:02:00,71.6,66.8,30.13,SE,146,2.0,3.0,85,0.00,,,0.00,0,Wunderground v.1.15,2013-01-13 06:02:00,
2013-01-13 01:08:00,71.5,66.8,30.13,SE,132,3.0,3.0,85,0.00,,,0.00,0,Wunderground v.1.15,2013-01-13 06:08:00,
2013-01-13 01:14:00,71.5,66.8,30.13,SE,126,3.0,6.0,85,0.00,,,0.00,0,Wunderground v.1.15,2013-01-13 06:14:00,
2013-01-13 01:20:00,71.5,66.8,30.13,ESE,117,2.0,5.0,85,0.00,,,0.00,0,Wunderground v.1.15,2013-01-13 06:20:00,
2013-01-13 01:26:00,71.5,66.8,30.13,SE,129,2.0,5.0,85,0.00,,,0.00,0,Wunderground v.1.15,2013-01-13 06:26:00,
2013-01-13 01:32:00,71.5,66.4,30.13,SE,138,3.0,6.0,84,0.00,,,0.00,0,Wunderground v.1.15,2013-01-13 06:32:00,
2013-01-13 01:38:00,71.5,66.4,30.13,SE,131,3.0,6.0,84,0.00,,,0.00,0,Wunderground v.1.15,2013-01-13 06:38:00,
2013-01-13 01:44:00,71.5,66.4,30.13,SE,130,3.0,3.0,84,0.00,,,0.00,0,Wunderground v.1.15,2013-01-13 06:44:00,
2013-01-13 01:50:00,71.4,66.3,30.13,ESE,121,3.0,4.0,84,0.00,,,0.00,0,Wunderground v.1.15,2013-01-13 06:50:00,
2013-01-13 01:56:00,71.3,66.6,30.13,ESE,123,2.0,5.0,85,0.00,,,0.00,0,Wunderground v.1.15,2013-01-13 06:56:00,
2013-01-13 02:02:00,71.2,66.5,30.13,SE,124,1.0,3.0,85,0.00,,,0.00,0,Wunderground v.1.15,2013-01-13 07:02:00,
2013-01-13 02:08:00,71.2,66.8,30.13,SE,135,1.0,6.0,86,0.00,,,0.00,0,Wunderground v.1.15,2013-01-13 07:08:00,
2013-01-13 02:14:00,71.2,66.8,30.13,SE,132,1.0,4.0,86,0.00,,,0.00,0,Wunderground v.1.15,2013-01-13 07:14:00,
2013-01-13 02:20:00,71.2,66.8,30.13,ESE,109,1.0,1.0,86,0.00,,,0.00,0,Wunderground v.1.15,2013-01-13 07:20:00,
2013-01-13 02:26:00,71.2,66.8,30.13,ESE,111,2.0,3.0,86,0.00,,,0.00,0,Wunderground v.1.15,2013-01-13 07:26:00,
2013-01-13 02:32:00,71.3,66.9,30.13,SE,128,2.0,2.0,86,0.00,,,0.00,0,Wunderground v.1.15,2013-01-13 07:32:00,
2013-01-13 02:38:00,71.1,66.7,30.13,SE,128,1.0,2.0,86,0.00,,,0.00,0,Wunderground v.1.15,2013-01-13 07:38:00,
2013-01-13 02:44:00,71.0,66.9,30.13,SE,128,0.0,1.0,87,0.00,,,0.00,0,Wunderground v.1.15,2013-01-13 07:44:00,
2013-01-13 02:50:00,70.8,66.7,30.13,SE,126,0.0,1.0,87,0.00,,,0.00,0,Wunderground v.1.15,2013-01-13 07:50:00,
2013-01-13 02:56:00,70.9,66.8,30.13,SE,126,0.0,1.0,87,0.00,,,0.00,0,Wunderground v.1.15,2013-01-13 07:56:00,
2013-01-13 03:02:00,70.8,67.1,30.13,SE,125,0.0,0.0,88,0.00,,,0.00,0,Wunderground v.1.15,2013-01-13 08:02:00,
2013-01-13 03:08:00,70.8,67.1,30.13,SE,128,0.0,0.0,88,0.00,,,0.00,0,Wunderground v.1.15,2013-01-13 08:08:00,
2013-01-13 03:14:00,70.7,67.0,30.13,SE,128,0.0,0.0,88,0.00,,,0.00,0,Wunderground v.1.15,2013-01-13 08:14:00,
2013-01-13 03:20:00,70.5,67.1,30.13,SE,128,0.0,0.0,89,0.00,,,0.00,0,Wunderground v.1.15,2013-01-13 08:20:00,
2013-01-13 03:26:00,70.4,67.0,30.13,SE,128,0.0,0.0,89,0.00,,,0.00,0,Wunderground v.1.15,2013-01-13 08:26:00,
2013-01-13 03:32:00,70.3,66.9,30.13,SE,128,0.0,0.0,89,0.00,,,0.00,0,Wunderground v.1.15,2013-01-13 08:32:00,
2013-01-13 03:38:00,70.1,66.7,30.13,SE,128,0.0,0.0,89,0.00,,,0.00,0,Wunderground v.1.15,2013-01-13 08:38:00,
2013-01-13 03:44:00,69.8,66.7,30.13,SE,128,0.0,0.0,90,0.00,,,0.00,0,Wunderground v.1.15,2013-01-13 08:44:00,
2013-01-13 03:50:00,69.8,66.7,30.12,SE,128,0.0,0.0,90,0.00,,,0.00,0,Wunderground v.1.15,2013-01-13 08:50:00,
2013-01-13 03:56:00,69.8,66.7,30.12,SE,128,0.0,0.0,90,0.00,,,0.00,0,Wunderground v.1.15,2013-01-13 08:56:00,
2013-01-13 04:02:00,69.7,66.6,30.12,SE,128,0.0,0.0,90,0.00,,,0.00,0,Wunderground v.1.15,2013-01-13 09:02:00,
2013-01-13 04:08:00,69.7,66.6,30.12,SE,128,0.0,0.0,90,0.00,,,0.00,0,Wunderground v.1.15,2013-01-13 09:08:00,
2013-01-13 04:14:00,69.9,66.8,30.11,SE,128,0.0,0.0,90,0.00,,,0.00,0,Wunderground v.1.15,2013-01-13 09:14:00,
2013-01-13 04:20:00,69.9,66.8,30.11,SE,128,0.0,0.0,90,0.00,,,0.00,0,Wunderground v.1.15,2013-01-13 09:20:00,
2013-01-13 04:26:00,69.7,66.6,30.11,SE,128,0.0,0.0,90,0.00,,,0.00,0,Wunderground v.1.15,2013-01-13 09:26:00,
2013-01-13 04:32:00,69.5,66.8,30.11,SE,128,0.0,0.0,91,0.00,,,0.00,0,Wunderground v.1.15,2013-01-13 09:32:00,
2013-01-13 04:38:00,69.2,66.8,30.11,SE,128,0.0,0.0,92,0.00,,,0.00,0,Wunderground v.1.15,2013-01-13 09:38:00,
2013-01-13 04:44:00,69.0,66.6,30.11,SE,128,0.0,0.0,92,0.00,,,0.00,0,Wunderground v.1.15,2013-01-13 09:44:00,
2013-01-13 04:50:00,68.8,66.4,30.11,SE,128,0.0,0.0,92,0.00,,,0.00,0,Wunderground v.1.15,2013-01-13 09:50:00,
2013-01-13 04:56:00,68.9,66.8,30.10,SE,128,0.0,2.0,93,0.00,,,0.00,0,Wunderground v.1.15,2013-01-13 09:56:00,
2013-01-13 05:02:00,68.9,66.8,30.10,SE,130,0.0,4.0,93,0.00,,,0.00,0,Wunderground v.1.15,2013-01-13 10:02:00,
2013-01-13 05:08:00,69.1,67.0,30.10,SE,131,1.0,4.0,93,0.00,,,0.00,0,Wunderground v.1.15,2013-01-13 10:08:00,
2013-01-13 05:14:00,69.3,66.6,30.10,SE,131,2.0,4.0,91,0.00,,,0.00,0,Wunderground v.1.15,2013-01-13 10:14:00,
2013-01-13 05:20:00,69.5,66.4,30.10,SE,135,2.0,2.0,90,0.00,,,0.00,0,Wunderground v.1.15,2013-01-13 10:20:00,
2013-01-13 05:26:00,69.7,66.3,30.10,SE,136,1.0,4.0,89,0.00,,,0.00,0,Wunderground v.1.15,2013-01-13 10:26:00,
2013-01-13 05:32:00,69.7,66.3,30.11,SE,136,0.0,1.0,89,0.00,,,0.00,0,Wunderground v.1.15,2013-01-13 10:32:00,
2013-01-13 05:38:00,69.6,66.2,30.10,SE,136,0.0,1.0,89,0.00,,,0.00,0,Wunderground v.1.15,2013-01-13 10:38:00,
2013-01-13 05:44:00,69.4,66.0,30.11,SE,136,0.0,0.0,89,0.00,,,0.00,0,Wunderground v.1.15,2013-01-13 10:44:00,
2013-01-13 05:50:00,69.3,66.2,30.11,SE,136,0.0,0.0,90,0.00,,,0.00,0,Wunderground v.1.15,2013-01-13 10:50:00,
2013-01-13 05:56:00,69.2,66.1,30.11,SE,136,0.0,3.0,90,0.00,,,0.00,0,Wunderground v.1.15,2013-01-13 10:56:00,
2013-01-13 06:02:00,69.4,66.3,30.11,SE,137,1.0,2.0,90,0.00,,,0.00,0,Wunderground v.1.15,2013-01-13 11:02:00,
2013-01-13 06:08:00,69.4,66.3,30.11,SE,138,1.0,2.0,90,0.00,,,0.00,0,Wunderground v.1.15,2013-01-13 11:08:00,
2013-01-13 06:14:00,69.2,66.1,30.11,SE,138,0.0,1.0,90,0.00,,,0.00,0,Wunderground v.1.15,2013-01-13 11:14:00,
2013-01-13 06:20:00,68.9,65.8,30.11,SE,138,0.0,0.0,90,0.00,,,0.00,0,Wunderground v.1.15,2013-01-13 11:20:00,
2013-01-13 06:26:00,68.8,66.1,30.11,SE,138,0.0,0.0,91,0.00,,,0.00,0,Wunderground v.1.15,2013-01-13 11:26:00,
2013-01-13 06:32:00,68.8,66.1,30.11,SE,138,0.0,0.0,91,0.00,,,0.00,0,Wunderground v.1.15,2013-01-13 11:32:00,
2013-01-13 06:38:00,68.8,66.1,30.11,SE,138,0.0,0.0,91,0.00,,,0.00,0,Wunderground v.1.15,2013-01-13 11:38:00,
2013-01-13 06:44:00,68.8,66.1,30.11,SE,139,0.0,0.0,91,0.00,,,0.00,0,Wunderground v.1.15,2013-01-13 11:44:00,
2013-01-13 06:50:00,68.9,66.2,30.12,SE,139,0.0,0.0,91,0.00,,,0.00,0,Wunderground v.1.15,2013-01-13 11:50:00,
2013-01-13 06:56:00,68.9,66.2,30.12,SE,139,0.0,0.0,91,0.00,,,0.00,0,Wunderground v.1.15,2013-01-13 11:56:00,
2013-01-13 07:02:00,69.0,66.3,30.12,SE,139,0.0,0.0,91,0.00,,,0.00,0,Wunderground v.1.15,2013-01-13 12:02:00,
2013-01-13 07:08:00,69.0,66.3,30.12,SE,140,0.0,0.0,91,0.00,,,0.00,0,Wunderground v.1.15,2013-01-13 12:08:00,
2013-01-13 07:14:00,69.0,66.3,30.12,SE,140,1.0,1.0,91,0.00,,,0.00,5,Wunderground v.1.15,2013-01-13 12:14:00,
2013-01-13 07:20:00,69.0,66.3,30.12,SE,139,1.0,4.0,91,0.00,,,0.00,9,Wunderground v.1.15,2013-01-13 12:20:00,
2013-01-13 07:26:00,69.2,66.5,30.12,SE,140,1.0,4.0,91,0.00,,,0.00,12,Wunderground v.1.15,2013-01-13 12:26:00,
2013-01-13 07:32:00,69.3,66.6,30.12,SE,141,2.0,2.0,91,0.00,,,0.00,18,Wunderground v.1.15,2013-01-13 12:32:00,
2013-01-13 07:38:00,69.5,66.8,30.12,SE,142,1.0,4.0,91,0.00,,,0.00,21,Wunderground v.1.15,2013-01-13 12:38:00,
2013-01-13 07:44:00,69.7,67.0,30.13,SE,142,1.0,3.0,91,0.00,,,0.00,26,Wunderground v.1.15,2013-01-13 12:44:00,
2013-01-13 07:50:00,70.0,66.9,30.13,SE,143,2.0,2.0,90,0.00,,,0.00,35,Wunderground v.1.15,2013-01-13 12:50:00,
2013-01-13 07:56:00,70.2,67.1,30.13,SE,143,1.0,2.0,90,0.00,,,0.00,47,Wunderground v.1.15,2013-01-13 12:56:00,
2013-01-13 08:02:00,70.6,67.2,30.13,SE,143,1.0,5.0,89,0.00,,,0.00,60,Wunderground v.1.15,2013-01-13 13:02:00,
2013-01-13 08:08:00,71.0,67.3,30.13,SE,144,2.0,5.0,88,0.00,,,0.00,77,Wunderground v.1.15,2013-01-13 13:08:00,
2013-01-13 08:14:00,71.4,67.3,30.13,SE,144,1.0,3.0,87,0.00,,,0.00,98,Wunderground v.1.15,2013-01-13 13:14:00,
2013-01-13 08:20:00,71.7,67.3,30.13,SE,146,2.0,2.0,86,0.00,,,0.00,116,Wunderground v.1.15,2013-01-13 13:20:00,
2013-01-13 08:26:00,72.0,66.9,30.13,SE,132,3.0,6.0,84,0.00,,,0.00,137,Wunderground v.1.15,2013-01-13 13:26:00,
2013-01-13 08:32:00,72.4,66.9,30.13,SSE,150,4.0,5.0,83,0.00,,,0.00,156,Wunderground v.1.15,2013-01-13 13:32:00,
2013-01-13 08:38:00,72.6,67.1,30.13,SE,143,5.0,7.0,83,0.00,,,0.00,178,Wunderground v.1.15,2013-01-13 13:38:00,
2013-01-13 08:44:00,72.9,67.1,30.13,SE,141,5.0,5.0,82,0.00,,,0.00,195,Wunderground v.1.15,2013-01-13 13:44:00,
2013-01-13 08:50:00,73.1,67.6,30.13,SE,142,5.0,8.0,83,0.00,,,0.00,216,Wunderground v.1.15,2013-01-13 13:50:00,
2013-01-13 08:56:00,73.3,67.5,30.13,ESE,118,6.0,8.0,82,0.00,,,0.00,232,Wunderground v.1.15,2013-01-13 13:56:00,
2013-01-13 09:02:00,73.5,67.3,30.13,SE,134,6.0,6.0,81,0.00,,,0.00,253,Wunderground v.1.15,2013-01-13 14:02:00,
2013-01-13 09:08:00,73.7,67.5,30.14,South,188,6.0,10.0,81,0.00,,,0.00,272,Wunderground v.1.15,2013-01-13 14:08:00,
2013-01-13 09:14:00,73.8,67.2,30.14,SE,143,6.0,12.0,80,0.00,,,0.00,290,Wunderground v.1.15,2013-01-13 14:14:00,
2013-01-13 09:20:00,74.0,67.1,30.15,SSE,148,6.0,6.0,79,0.00,,,0.00,308,Wunderground v.1.15,2013-01-13 14:20:00,
2013-01-13 09:26:00,74.2,66.9,30.15,SE,132,6.0,6.0,78,0.00,,,0.00,323,Wunderground v.1.15,2013-01-13 14:26:00,
2013-01-13 09:32:00,74.2,66.9,30.15,ESE,113,6.0,6.0,78,0.00,,,0.00,343,Wunderground v.1.15,2013-01-13 14:32:00,
2013-01-13 09:38:00,74.4,66.7,30.16,SSE,148,6.0,10.0,77,0.00,,,0.00,359,Wunderground v.1.15,2013-01-13 14:38:00,
2013-01-13 09:44:00,74.6,66.9,30.16,ESE,103,6.0,6.0,77,0.00,,,0.00,376,Wunderground v.1.15,2013-01-13 14:44:00,
2013-01-13 09:50:00,74.9,66.8,30.17,SE,134,5.0,6.0,76,0.00,,,0.00,390,Wunderground v.1.15,2013-01-13 14:50:00,
2013-01-13 09:56:00,74.7,66.6,30.17,SE,132,5.0,11.0,76,0.00,,,0.00,408,Wunderground v.1.15,2013-01-13 14:56:00,
2013-01-13 10:02:00,74.9,66.4,30.17,ESE,117,6.0,6.0,75,0.00,,,0.00,422,Wunderground v.1.15,2013-01-13 15:02:00,
2013-01-13 10:08:00,74.8,66.7,30.17,ESE,113,6.0,7.0,76,0.00,,,0.00,439,Wunderground v.1.15,2013-01-13 15:08:00,
2013-01-13 10:14:00,75.2,66.7,30.18,East,96,6.0,6.0,75,0.00,,,0.00,452,Wunderground v.1.15,2013-01-13 15:14:00,
2013-01-13 10:20:00,75.7,66.8,30.18,ESE,123,4.0,5.0,74,0.00,,,0.00,469,Wunderground v.1.15,2013-01-13 15:20:00,
2013-01-13 10:26:00,75.4,66.1,30.18,ESE,113,5.0,10.0,73,0.00,,,0.00,483,Wunderground v.1.15,2013-01-13 15:26:00,
2013-01-13 10:32:00,75.3,66.4,30.19,SSE,155,6.0,8.0,74,0.00,,,0.00,503,Wunderground v.1.15,2013-01-13 15:32:00,
2013-01-13 10:38:00,75.7,66.0,30.18,ESE,121,5.0,8.0,72,0.00,,,0.00,517,Wunderground v.1.15,2013-01-13 15:38:00,
2013-01-13 10:44:00,75.6,65.5,30.18,SE,125,6.0,9.0,71,0.00,,,0.00,526,Wunderground v.1.15,2013-01-13 15:44:00,
2013-01-13 10:50:00,75.5,65.0,30.18,SE,129,6.0,7.0,70,0.00,,,0.00,536,Wunderground v.1.15,2013-01-13 15:50:00,
2013-01-13 10:56:00,75.7,65.6,30.18,SSE,147,6.0,9.0,71,0.00,,,0.00,548,Wunderground v.1.15,2013-01-13 15:56:00,
2013-01-13 11:02:00,76.0,66.3,30.18,ESE,113,5.0,6.0,72,0.00,,,0.00,557,Wunderground v.1.15,2013-01-13 16:02:00,
2013-01-13 11:08:00,75.9,66.2,30.18,ESE,119,5.0,6.0,72,0.00,,,0.00,566,Wunderground v.1.15,2013-01-13 16:08:00,
2013-01-13 11:14:00,76.2,65.7,30.18,ESE,119,4.0,5.0,70,0.00,,,0.00,578,Wunderground v.1.15,2013-01-13 16:14:00,
2013-01-13 11:20:00,75.9,64.6,30.17,SE,146,6.0,10.0,68,0.00,,,0.00,587,Wunderground v.1.15,2013-01-13 16:20:00,
2013-01-13 11:26:00,76.7,65.8,30.17,SSE,150,5.0,10.0,69,0.00,,,0.00,594,Wunderground v.1.15,2013-01-13 16:26:00,
2013-01-13 11:32:00,76.1,65.2,30.17,ESE,119,5.0,8.0,69,0.00,,,0.00,601,Wunderground v.1.15,2013-01-13 16:32:00,
2013-01-13 11:38:00,76.1,65.2,30.17,SE,134,6.0,8.0,69,0.00,,,0.00,608,Wunderground v.1.15,2013-01-13 16:38:00,
2013-01-13 11:44:00,76.4,65.1,30.17,ESE,106,5.0,6.0,68,0.00,,,0.00,615,Wunderground v.1.15,2013-01-13 16:44:00,
2013-01-13 11:50:00,76.6,64.8,30.17,ESE,109,5.0,5.0,67,0.00,,,0.00,619,Wunderground v.1.15,2013-01-13 16:50:00,
2013-01-13 11:56:00,76.3,65.4,30.17,ESE,103,5.0,6.0,69,0.00,,,0.00,626,Wunderground v.1.15,2013-01-13 16:56:00,
2013-01-13 12:02:00,76.7,64.9,30.17,East,96,4.0,5.0,67,0.00,,,0.00,631,Wunderground v.1.15,2013-01-13 17:02:00,
2013-01-13 12:08:00,76.6,65.2,30.17,East,101,4.0,5.0,68,0.00,,,0.00,636,Wunderground v.1.15,2013-01-13 17:08:00,
2013-01-13 12:14:00,76.6,65.2,30.16,ESE,115,4.0,6.0,68,0.00,,,0.00,642,Wunderground v.1.15,2013-01-13 17:14:00,
2013-01-13 12:20:00,76.2,64.0,30.16,ESE,102,5.0,6.0,66,0.00,,,0.00,643,Wunderground v.1.15,2013-01-13 17:20:00,
2013-01-13 12:26:00,76.4,65.1,30.16,East,101,5.0,10.0,68,0.00,,,0.00,642,Wunderground v.1.15,2013-01-13 17:26:00,
2013-01-13 12:32:00,76.7,64.9,30.16,East,98,5.0,10.0,67,0.00,,,0.00,645,Wunderground v.1.15,2013-01-13 17:32:00,
2013-01-13 12:38:00,76.5,64.7,30.16,ESE,113,6.0,10.0,67,0.00,,,0.00,649,Wunderground v.1.15,2013-01-13 17:38:00,
2013-01-13 12:44:00,76.4,65.5,30.15,ESE,108,7.0,11.0,69,0.00,,,0.00,650,Wunderground v.1.15,2013-01-13 17:44:00,
2013-01-13 12:50:00,76.5,65.6,30.15,East,99,7.0,7.0,69,0.00,,,0.00,629,Wunderground v.1.15,2013-01-13 17:50:00,
2013-01-13 12:56:00,76.7,65.3,30.15,ESE,113,6.0,8.0,68,0.00,,,0.00,650,Wunderground v.1.15,2013-01-13 17:56:00,
2013-01-13 13:02:00,76.5,65.6,30.15,East,97,6.0,6.0,69,0.00,,,0.00,654,Wunderground v.1.15,2013-01-13 18:02:00,
2013-01-13 13:08:00,76.3,65.0,30.15,ESE,113,7.0,12.0,68,0.00,,,0.00,643,Wunderground v.1.15,2013-01-13 18:08:00,
2013-01-13 13:14:00,76.3,65.4,30.15,ESE,116,7.0,11.0,69,0.00,,,0.00,642,Wunderground v.1.15,2013-01-13 18:14:00,
2013-01-13 13:20:00,76.5,65.6,30.14,East,83,6.0,6.0,69,0.00,,,0.00,640,Wunderground v.1.15,2013-01-13 18:20:00,
2013-01-13 13:26:00,76.4,65.9,30.14,ESE,119,6.0,10.0,70,0.00,,,0.00,640,Wunderground v.1.15,2013-01-13 18:26:00,
2013-01-13 13:32:00,76.5,65.6,30.14,East,93,6.0,9.0,69,0.00,,,0.00,642,Wunderground v.1.15,2013-01-13 18:32:00,
2013-01-13 13:38:00,76.3,66.2,30.14,East,100,7.0,10.0,71,0.00,,,0.00,608,Wunderground v.1.15,2013-01-13 18:38:00,
2013-01-13 13:44:00,76.5,66.8,30.13,East,87,6.0,9.0,72,0.00,,,0.00,636,Wunderground v.1.15,2013-01-13 18:44:00,
2013-01-13 13:50:00,76.0,66.3,30.13,ESE,123,6.0,9.0,72,0.00,,,0.00,592,Wunderground v.1.15,2013-01-13 18:50:00,
2013-01-13 13:56:00,75.9,66.2,30.13,ESE,113,7.0,9.0,72,0.00,,,0.00,473,Wunderground v.1.15,2013-01-13 18:56:00,
2013-01-13 14:02:00,75.9,65.4,30.13,ESE,104,7.0,10.0,70,0.00,,,0.00,584,Wunderground v.1.15,2013-01-13 19:02:00,
2013-01-13 14:08:00,76.4,65.9,30.13,SE,131,7.0,10.0,70,0.00,,,0.00,617,Wunderground v.1.15,2013-01-13 19:08:00,
2013-01-13 14:14:00,76.3,66.2,30.13,ESE,105,6.0,9.0,71,0.00,,,0.00,577,Wunderground v.1.15,2013-01-13 19:14:00,
2013-01-13 14:20:00,76.0,65.9,30.12,ESE,108,8.0,8.0,71,0.00,,,0.00,596,Wunderground v.1.15,2013-01-13 19:20:00,
2013-01-13 14:26:00,75.8,66.1,30.12,ESE,103,8.0,11.0,72,0.00,,,0.00,582,Wunderground v.1.15,2013-01-13 19:26:00,
2013-01-13 14:32:00,76.3,66.2,30.12,ESE,106,7.0,8.0,71,0.00,,,0.00,450,Wunderground v.1.15,2013-01-13 19:32:00,
2013-01-13 14:38:00,76.0,65.9,30.12,East,95,7.0,8.0,71,0.00,,,0.00,503,Wunderground v.1.15,2013-01-13 19:38:00,
2013-01-13 14:44:00,75.9,65.8,30.12,SE,127,7.0,10.0,71,0.00,,,0.00,529,Wunderground v.1.15,2013-01-13 19:44:00,
2013-01-13 14:50:00,75.7,66.0,30.12,ESE,121,8.0,8.0,72,0.00,,,0.00,526,Wunderground v.1.15,2013-01-13 19:50:00,
2013-01-13 14:56:00,75.8,66.1,30.12,ESE,104,9.0,12.0,72,0.00,,,0.00,497,Wunderground v.1.15,2013-01-13 19:56:00,
2013-01-13 15:02:00,75.6,66.3,30.12,SE,128,8.0,12.0,73,0.00,,,0.00,475,Wunderground v.1.15,2013-01-13 20:02:00,
2013-01-13 15:08:00,75.8,66.5,30.12,East,80,7.0,12.0,73,0.00,,,0.00,464,Wunderground v.1.15,2013-01-13 20:08:00,
2013-01-13 15:14:00,75.5,66.2,30.12,ESE,113,7.0,14.0,73,0.00,,,0.00,454,Wunderground v.1.15,2013-01-13 20:14:00,
2013-01-13 15:20:00,75.1,66.2,30.12,ESE,118,9.0,9.0,74,0.00,,,0.00,443,Wunderground v.1.15,2013-01-13 20:20:00,
2013-01-13 15:26:00,75.5,66.6,30.12,ESE,111,8.0,9.0,74,0.00,,,0.00,411,Wunderground v.1.15,2013-01-13 20:26:00,
2013-01-13 15:32:00,75.3,66.8,30.12,SE,128,7.0,7.0,75,0.00,,,0.00,376,Wunderground v.1.15,2013-01-13 20:32:00,
2013-01-13 15:38:00,75.3,66.8,30.13,ESE,103,7.0,7.0,75,0.00,,,0.00,355,Wunderground v.1.15,2013-01-13 20:38:00,
2013-01-13 15:44:00,75.0,66.9,30.13,ESE,103,7.0,11.0,76,0.00,,,0.00,299,Wunderground v.1.15,2013-01-13 20:44:00,
2013-01-13 15:50:00,74.9,66.8,30.13,ESE,104,7.0,7.0,76,0.00,,,0.00,352,Wunderground v.1.15,2013-01-13 20:50:00,
2013-01-13 15:56:00,74.8,66.7,30.13,SE,127,7.0,12.0,76,0.00,,,0.00,239,Wunderground v.1.15,2013-01-13 20:56:00,
2013-01-13 16:02:00,74.7,67.0,30.13,ESE,103,7.0,10.0,77,0.00,,,0.00,227,Wunderground v.1.15,2013-01-13 21:02:00,
2013-01-13 16:08:00,74.5,67.6,30.14,SE,144,6.0,10.0,79,0.00,,,0.00,209,Wunderground v.1.15,2013-01-13 21:08:00,
2013-01-13 16:14:00,74.3,67.0,30.14,ESE,115,5.0,6.0,78,0.00,,,0.00,134,Wunderground v.1.15,2013-01-13 21:14:00,
2013-01-13 16:20:00,74.2,67.3,30.14,ESE,117,6.0,7.0,79,0.00,,,0.00,162,Wunderground v.1.15,2013-01-13 21:20:00,
2013-01-13 16:26:00,74.1,67.2,30.15,SE,125,5.0,7.0,79,0.00,,,0.00,141,Wunderground v.1.15,2013-01-13 21:26:00,
2013-01-13 16:32:00,74.1,67.2,30.15,ESE,107,4.0,6.0,79,0.00,,,0.00,111,Wunderground v.1.15,2013-01-13 21:32:00,
2013-01-13 16:38:00,74.0,67.1,30.15,ESE,102,4.0,7.0,79,0.00,,,0.00,104,Wunderground v.1.15,2013-01-13 21:38:00,
2013-01-13 16:44:00,73.9,67.0,30.15,ESE,116,5.0,5.0,79,0.00,,,0.00,83,Wunderground v.1.15,2013-01-13 21:44:00,
2013-01-13 16:50:00,73.8,66.9,30.15,East,101,4.0,4.0,79,0.00,,,0.00,70,Wunderground v.1.15,2013-01-13 21:50:00,
2013-01-13 16:56:00,73.7,67.1,30.15,ESE,119,3.0,5.0,80,0.00,,,0.00,60,Wunderground v.1.15,2013-01-13 21:56:00,
2013-01-13 17:02:00,73.5,66.6,30.15,East,99,5.0,6.0,79,0.00,,,0.00,53,Wunderground v.1.15,2013-01-13 22:02:00,
2013-01-13 17:08:00,73.5,66.9,30.16,ESE,105,5.0,6.0,80,0.00,,,0.00,49,Wunderground v.1.15,2013-01-13 22:08:00,
2013-01-13 17:14:00,73.4,66.9,30.16,ESE,106,4.0,7.0,80,0.00,,,0.00,42,Wunderground v.1.15,2013-01-13 22:14:00,
2013-01-13 17:20:00,73.3,67.1,30.15,ESE,108,5.0,5.0,81,0.00,,,0.00,33,Wunderground v.1.15,2013-01-13 22:20:00,
2013-01-13 17:26:00,73.1,66.9,30.16,East,101,4.0,5.0,81,0.00,,,0.00,25,Wunderground v.1.15,2013-01-13 22:26:00,
2013-01-13 17:32:00,73.1,67.3,30.16,East,100,4.0,5.0,82,0.00,,,0.00,18,Wunderground v.1.15,2013-01-13 22:32:00,
2013-01-13 17:38:00,73.0,67.2,30.16,ESE,119,3.0,6.0,82,0.00,,,0.00,9,Wunderground v.1.15,2013-01-13 22:38:00,
2013-01-13 17:44:00,72.9,67.1,30.16,SE,134,2.0,5.0,82,0.00,,,0.00,0,Wunderground v.1.15,2013-01-13 22:44:00,
2013-01-13 17:50:00,72.8,67.0,30.16,SE,128,2.0,5.0,82,0.00,,,0.00,0,Wunderground v.1.15,2013-01-13 22:50:00,
2013-01-13 17:56:00,72.8,67.3,30.16,SE,126,2.0,6.0,83,0.00,,,0.00,0,Wunderground v.1.15,2013-01-13 22:56:00,
2013-01-13 18:02:00,72.7,67.2,30.16,SE,131,3.0,4.0,83,0.00,,,0.00,0,Wunderground v.1.15,2013-01-13 23:02:00,
2013-01-13 18:08:00,72.6,67.1,30.16,ESE,116,2.0,5.0,83,0.00,,,0.00,0,Wunderground v.1.15,2013-01-13 23:08:00,
2013-01-13 18:14:00,72.6,67.1,30.16,SE,128,3.0,4.0,83,0.00,,,0.00,0,Wunderground v.1.15,2013-01-13 23:14:00,
2013-01-13 18:20:00,72.6,67.1,30.16,ESE,105,3.0,3.0,83,0.00,,,0.00,0,Wunderground v.1.15,2013-01-13 23:20:00,
2013-01-13 18:26:00,72.6,67.1,30.16,SE,130,4.0,4.0,83,0.00,,,0.00,0,Wunderground v.1.15,2013-01-13 23:26:00,
2013-01-13 18:32:00,72.6,67.1,30.16,SE,144,4.0,10.0,83,0.00,,,0.00,0,Wunderground v.1.15,2013-01-13 23:32:00,
2013-01-13 18:38:00,72.6,67.1,30.16,ESE,123,4.0,10.0,83,0.00,,,0.00,0,Wunderground v.1.15,2013-01-13 23:38:00,
2013-01-13 18:44:00,72.6,67.5,30.16,ESE,102,5.0,7.0,84,0.00,,,0.00,0,Wunderground v.1.15,2013-01-13 23:44:00,
2013-01-13 18:50:00,72.6,67.5,30.16,SE,135,5.0,5.0,84,0.00,,,0.00,0,Wunderground v.1.15,2013-01-13 23:50:00,
2013-01-13 18:56:00,72.6,67.5,30.15,SE,139,5.0,10.0,84,0.00,,,0.00,0,Wunderground v.1.15,2013-01-13 23:56:00,
2013-01-13 19:02:00,72.6,67.5,30.15,East,92,6.0,10.0,84,0.00,,,0.00,0,Wunderground v.1.15,2013-01-14 00:02:00,
2013-01-13 19:08:00,72.5,67.4,30.15,SE,140,5.0,10.0,84,0.00,,,0.00,0,Wunderground v.1.15,2013-01-14 00:08:00,
2013-01-13 19:14:00,72.5,67.4,30.15,SSE,150,4.0,10.0,84,0.00,,,0.00,0,Wunderground v.1.15,2013-01-14 00:14:00,
2013-01-13 19:20:00,72.4,67.6,30.15,East,101,4.0,6.0,85,0.00,,,0.00,0,Wunderground v.1.15,2013-01-14 00:20:00,
2013-01-13 19:26:00,72.3,67.5,30.15,ESE,118,3.0,6.0,85,0.00,,,0.00,0,Wunderground v.1.15,2013-01-14 00:26:00,
2013-01-13 19:32:00,72.3,67.5,30.15,SE,127,4.0,8.0,85,0.00,,,0.00,0,Wunderground v.1.15,2013-01-14 00:32:00,
2013-01-13 19:38:00,72.4,67.6,30.15,East,94,4.0,8.0,85,0.00,,,0.00,0,Wunderground v.1.15,2013-01-14 00:38:00,
2013-01-13 19:44:00,72.3,67.5,30.14,ESE,108,5.0,10.0,85,0.00,,,0.00,0,Wunderground v.1.15,2013-01-14 00:44:00,
2013-01-13 19:50:00,72.4,67.3,30.14,SE,145,6.0,9.0,84,0.00,,,0.00,0,Wunderground v.1.15,2013-01-14 00:50:00,
2013-01-13 19:56:00,72.4,67.3,30.14,ESE,105,6.0,9.0,84,0.00,,,0.00,0,Wunderground v.1.15,2013-01-14 00:56:00,
2013-01-13 20:02:00,72.4,67.3,30.14,SE,142,7.0,7.0,84,0.00,,,0.00,0,Wunderground v.1.15,2013-01-14 01:02:00,
2013-01-13 20:08:00,72.4,66.9,30.14,SSE,148,6.0,10.0,83,0.00,,,0.00,0,Wunderground v.1.15,2013-01-14 01:08:00,
2013-01-13 20:14:00,72.4,66.9,30.14,ESE,119,6.0,11.0,83,0.00,,,0.00,0,Wunderground v.1.15,2013-01-14 01:14:00,
2013-01-13 20:20:00,72.5,67.0,30.14,SE,146,6.0,6.0,83,0.00,,,0.00,0,Wunderground v.1.15,2013-01-14 01:20:00,
2013-01-13 20:26:00,72.4,66.9,30.14,SE,131,5.0,6.0,83,0.00,,,0.00,0,Wunderground v.1.15,2013-01-14 01:26:00,
2013-01-13 20:32:00,72.4,66.9,30.14,SE,144,5.0,9.0,83,0.00,,,0.00,0,Wunderground v.1.15,2013-01-14 01:32:00,
2013-01-13 20:38:00,72.3,67.2,30.14,ESE,123,3.0,9.0,84,0.00,,,0.00,0,Wunderground v.1.15,2013-01-14 01:38:00,
2013-01-13 20:44:00,72.3,67.2,30.14,SE,125,3.0,3.0,84,0.00,,,0.00,0,Wunderground v.1.15,2013-01-14 01:44:00,
2013-01-13 20:50:00,72.2,67.1,30.14,SE,134,2.0,4.0,84,0.00,,,0.00,0,Wunderground v.1.15,2013-01-14 01:50:00,
2013-01-13 20:56:00,72.2,67.1,30.14,SE,143,3.0,9.0,84,0.00,,,0.00,0,Wunderground v.1.15,2013-01-14 01:56:00,
2013-01-13 21:02:00,72.2,67.1,30.14,SE,130,3.0,4.0,84,0.00,,,0.00,0,Wunderground v.1.15,2013-01-14 02:02:00,
2013-01-13 21:08:00,72.2,67.1,30.14,ESE,123,3.0,4.0,84,0.00,,,0.00,0,Wunderground v.1.15,2013-01-14 02:08:00,
2013-01-13 21:14:00,72.2,67.1,30.14,SE,130,3.0,4.0,84,0.00,,,0.00,0,Wunderground v.1.15,2013-01-14 02:14:00,
2013-01-13 21:20:00,72.2,67.4,30.14,SE,139,3.0,3.0,85,0.00,,,0.00,0,Wunderground v.1.15,2013-01-14 02:20:00,
2013-01-13 21:26:00,72.2,67.4,30.14,ESE,107,3.0,7.0,85,0.00,,,0.00,0,Wunderground v.1.15,2013-01-14 02:26:00,
2013-01-13 21:32:00,72.1,67.3,30.13,ESE,112,3.0,4.0,85,0.00,,,0.00,0,Wunderground v.1.15,2013-01-14 02:32:00,
2013-01-13 21:38:00,72.1,67.3,30.14,SE,134,3.0,4.0,85,0.00,,,0.00,0,Wunderground v.1.15,2013-01-14 02:38:00,
2013-01-13 21:44:00,72.1,67.0,30.14,SE,130,3.0,4.0,84,0.00,,,0.00,0,Wunderground v.1.15,2013-01-14 02:44:00,
2013-01-13 21:50:00,72.1,67.0,30.14,ESE,121,3.0,3.0,84,0.00,,,0.00,0,Wunderground v.1.15,2013-01-14 02:50:00,
2013-01-13 21:56:00,72.1,67.0,30.14,SE,139,3.0,5.0,84,0.00,,,0.00,0,Wunderground v.1.15,2013-01-14 02:56:00,
2013-01-13 22:02:00,72.1,66.6,30.14,SSE,148,3.0,3.0,83,0.00,,,0.00,0,Wunderground v.1.15,2013-01-14 03:02:00,
2013-01-13 22:08:00,72.0,66.6,30.14,SE,132,2.0,5.0,83,0.00,,,0.00,0,Wunderground v.1.15,2013-01-14 03:08:00,
2013-01-13 22:14:00,72.0,66.6,30.14,ESE,119,2.0,4.0,83,0.00,,,0.00,0,Wunderground v.1.15,2013-01-14 03:14:00,
2013-01-13 22:20:00,72.0,66.2,30.14,SE,131,3.0,3.0,82,0.00,,,0.00,0,Wunderground v.1.15,2013-01-14 03:20:00,
2013-01-13 22:26:00,72.0,65.8,30.15,SE,137,3.0,6.0,81,0.00,,,0.00,0,Wunderground v.1.15,2013-01-14 03:26:00,
2013-01-13 22:32:00,72.0,65.8,30.15,SE,137,2.0,2.0,81,0.00,,,0.00,0,Wunderground v.1.15,2013-01-14 03:32:00,
2013-01-13 22:38:00,72.0,65.8,30.15,SE,138,1.0,2.0,81,0.00,,,0.00,0,Wunderground v.1.15,2013-01-14 03:38:00,
2013-01-13 22:44:00,71.9,65.8,30.15,SE,138,1.0,1.0,81,0.00,,,0.00,0,Wunderground v.1.15,2013-01-14 03:44:00,
2013-01-13 22:50:00,71.7,65.6,30.16,SE,138,0.0,0.0,81,0.00,,,0.00,0,Wunderground v.1.15,2013-01-14 03:50:00,
2013-01-13 22:56:00,71.5,65.4,30.15,SE,138,0.0,0.0,81,0.00,,,0.00,0,Wunderground v.1.15,2013-01-14 03:56:00,
2013-01-13 23:02:00,71.0,65.2,30.16,SE,138,0.0,0.0,82,0.00,,,0.00,0,Wunderground v.1.15,2013-01-14 04:02:00,
2013-01-13 23:08:00,70.8,65.4,30.16,SE,138,0.0,0.0,83,0.00,,,0.00,0,Wunderground v.1.15,2013-01-14 04:08:00,
2013-01-13 23:14:00,70.8,65.4,30.16,SE,138,0.0,0.0,83,0.00,,,0.00,0,Wunderground v.1.15,2013-01-14 04:14:00,
2013-01-13 23:20:00,70.6,65.5,30.16,SE,138,0.0,0.0,84,0.00,,,0.00,0,Wunderground v.1.15,2013-01-14 04:20:00,
2013-01-13 23:26:00,70.3,65.2,30.16,SE,138,0.0,0.0,84,0.00,,,0.00,0,Wunderground v.1.15,2013-01-14 04:26:00,
2013-01-13 23:32:00,69.8,65.1,30.16,SE,138,0.0,0.0,85,0.00,,,0.00,0,Wunderground v.1.15,2013-01-14 04:32:00,
2013-01-13 23:38:00,69.6,65.2,30.16,SE,138,0.0,0.0,86,0.00,,,0.00,0,Wunderground v.1.15,2013-01-14 04:38:00,
2013-01-13 23:44:00,69.6,65.2,30.16,SE,138,0.0,0.0,86,0.00,,,0.00,0,Wunderground v.1.15,2013-01-14 04:44:00,
2013-01-13 23:50:00,69.7,65.3,30.16,SE,138,0.0,0.0,86,0.00,,,0.00,0,Wunderground v.1.15,2013-01-14 04:50:00,
2013-01-13 23:56:00,69.8,65.1,30.16,SE,138,0.0,0.0,85,0.00,,,0.00,0,Wunderground v.1.15,2013-01-14 04:56:00,